Weather History for Wolf Point, MT

Change the Weather History Date:

Thursday, March 7, 2013

  Actual Average Record
Temperature  
Mean Temperature 22 °F -  
Max Temperature 33 °F 39 °F 57 °F (2007)
Min Temperature 10 °F 14 °F -16 °F (2003)
Degree Days  
Heating Degree Days 43    
Cooling Degree Days 0    
Moisture  
Dew Point 17 °F    
Average Humidity 83    
Maximum Humidity 93    
Minimum Humidity 66    
Precipitation  
Precipitation 0.01 in 0.01 in 0.05 in (2005)
Month to date precipitation 0.21 0.07  
Year to date precipitation 0.41 0.59  
Sea Level Pressure  
Sea Level Pressure 30.05 in    
Wind  
Wind Speed 7 mph (NW)    
Max Wind Speed 16 mph    
Max Gust Speed -    
Visibility 7 miles    
Events Snow    
T = Trace of Precipitation, MM = Missing Value Source: NWS Daily Summary

Daily Weather History Graph

Daily Weather History Graph

Search for Another Location

Airport:

Trip Planner

Search our weather history database for the weather conditions in past years. The results will help you decide how hot, cold, wet, or windy it might be!

Date:

Astronomy

Mar. 07, 2013 Rise Set
Actual Time 6:30 AM MST 5:56 PM MST
Civil Twilight 5:59 AM MST 6:27 PM MST
Nautical Twilight 5:24 AM MST 7:03 PM MST
Astronomical Twilight 4:47 AM MST 7:39 PM MST
Moon 3:49 AM MST (3/7) 1:31 PM MST (3/7)
Length of Visible Light 12h 27m
Length of Day
11h 25m
Waning Crescent, 19% of the Moon is Illuminated
Mar 7
Waning Crescent
Mar 11
New
Mar 19
First Quarter
Mar 27
Full
Apr 2
Last Quarter

Hourly Weather History & Observations

Time (MST) Temp. Windchill Dew Point Humidity Pressure Visibility Wind Dir Wind Speed Gust Speed Precip Events Conditions
12:53 AM 21.9 °F 9.2 °F 17.1 °F 82% 29.95 in 10.0 mi ENE 13.8 mph - N/A   Scattered Clouds
1:53 AM 19.0 °F 10.0 °F 15.1 °F 85% 29.98 in 10.0 mi ENE 6.9 mph - N/A   Clear
2:53 AM 17.1 °F 3.6 °F 12.9 °F 84% 29.96 in 10.0 mi ENE 12.7 mph - N/A   Clear
3:53 AM 17.1 °F 7.6 °F 12.9 °F 84% 29.98 in 10.0 mi East 6.9 mph - N/A   Clear
4:53 AM 17.1 °F 10.0 °F 12.9 °F 84% 29.99 in 10.0 mi ENE 4.6 mph - N/A   Clear
5:53 AM 16.0 °F - 12.0 °F 84% 30.01 in 9.0 mi Calm Calm - N/A   Clear
6:53 AM 17.1 °F - 14.0 °F 88% 30.03 in 8.0 mi Calm Calm - N/A   Overcast
7:34 AM 19.4 °F 8.6 °F 15.8 °F 86% 29.91 in 1.8 mi ENE 9.2 mph - 0.00 in Snow Light Snow
7:36 AM 19.4 °F 9.5 °F 15.8 °F 86% 29.91 in 0.8 mi ENE 8.1 mph - 0.00 in Snow Light Snow
7:53 AM 19.9 °F 9.3 °F 16.0 °F 85% 30.01 in 0.8 mi East 9.2 mph - 0.01 in Snow Light Snow
7:56 AM 19.4 °F 10.4 °F 15.8 °F 86% 29.92 in 1.0 mi East 6.9 mph - 0.00 in Snow Light Snow
8:05 AM 19.4 °F 14.3 °F 17.6 °F 93% 29.93 in 1.0 mi ENE 3.5 mph - 0.00 in Snow Light Snow
8:10 AM 19.4 °F - 17.6 °F 93% 29.94 in 2.0 mi Calm Calm - 0.00 in Snow Light Snow
8:21 AM 19.4 °F 14.3 °F 15.8 °F 86% 29.95 in 4.0 mi SW 3.5 mph - 0.00 in   Overcast
8:53 AM 19.9 °F 14.9 °F 16.0 °F 85% 30.06 in 2.5 mi West 3.5 mph - 0.00 in Snow Light Snow
9:24 AM 21.2 °F 16.4 °F 17.6 °F 86% 29.96 in 1.0 mi SW 3.5 mph - 0.00 in Snow Light Snow
9:40 AM 21.2 °F 16.4 °F 17.6 °F 86% 29.97 in 1.2 mi West 3.5 mph - 0.00 in Snow Light Snow
9:47 AM 21.2 °F - 17.6 °F 86% 29.96 in 2.0 mi Calm Calm - 0.00 in Snow Light Snow
9:53 AM 21.9 °F - 18.0 °F 85% 30.06 in 4.0 mi Calm Calm - 0.00 in Snow Light Snow
10:53 AM 24.1 °F 16.0 °F 19.0 °F 81% 30.08 in 9.0 mi West 6.9 mph - 0.00 in   Overcast
11:53 AM 26.1 °F 17.6 °F 19.9 °F 78% 30.09 in 10.0 mi WSW 8.1 mph - N/A   Overcast
12:53 PM 28.9 °F 19.2 °F 23.0 °F 78% 30.11 in 10.0 mi West 11.5 mph - N/A   Partly Cloudy
1:53 PM 30.9 °F 22.2 °F 23.0 °F 72% 30.11 in 10.0 mi West 10.4 mph - N/A   Clear
2:53 PM 32.0 °F 23.0 °F 25.0 °F 75% 30.11 in 10.0 mi West 11.5 mph - N/A   Mostly Cloudy
3:12 PM 33.8 °F 23.5 °F 24.8 °F 70% 30.03 in 10.0 mi WNW 16.1 mph - N/A   Scattered Clouds
3:53 PM 33.1 °F 25.5 °F 24.1 °F 70% 30.12 in 10.0 mi NW 9.2 mph - N/A   Clear
4:53 PM 32.0 °F 22.5 °F 21.9 °F 66% 30.13 in 10.0 mi West 12.7 mph - N/A   Clear
5:53 PM 28.9 °F 22.8 °F 21.0 °F 72% 30.16 in 10.0 mi WNW 5.8 mph - N/A   Clear
6:53 PM 23.0 °F 14.7 °F 19.0 °F 85% 30.19 in 10.0 mi NW 6.9 mph - N/A   Clear
7:53 PM 21.0 °F - 16.0 °F 81% 30.21 in 10.0 mi Calm Calm - N/A   Clear
8:53 PM 18.0 °F 11.1 °F 14.0 °F 84% 30.24 in 10.0 mi NW 4.6 mph - N/A   Clear
9:53 PM 18.0 °F 12.7 °F 15.1 °F 88% 30.26 in 8.0 mi West 3.5 mph - N/A   Clear
10:53 PM 15.1 °F - 10.9 °F 84% 30.27 in 7.0 mi Calm Calm - N/A   Clear
11:53 PM 12.0 °F - 9.0 °F 88% 30.28 in 7.0 mi Calm Calm - N/A   Clear